Starlink 30950

operational
NORAD ID: 58440 Int'l Des: 2023-183 Owner: SPXS Country: US Constellation: starlink
LEOCIRCULAR

关于 Starlink 30950

正在加载描述...

实时位置

正在加载3D地球...

即将过境

高度历史

Altitude vs Time

uPlot chart will show altitude changes over time

两行轨道根数

1 58440U 23183D 25258.32652586 .00000796 00000-0 38464-4 0 9998
2 58440 43.0059 115.4806 0001142 267.3228 92.7493 15.27579991102212
Epoch: Sep 15, 2025 • Age: 20 hours

当前状态

高度 492.0 km
速度 7.62 km/s
星下点 -33.93°S, 74.05°W
发射日期 Nov 28, 2023
运行时间 1.7 years
类型 internet

技术详情

分类 Payload
质量 730.00 kg
干质量 700.00 kg
总质量 730.00 kg
长度 0.30 m
直径 4.10 m
跨度 29.00 m
形状 Box + pan
制造商 SPXS
平台类型 Starlink V2M
阶段状态 In Orbit
所有者/国家 SPXS/US

大型星座

Loading constellations...